owner,sensor,date,latitude,longitude,dew_point_temperature,qcFlag 
SCCF RECON,ioos:station:SCCF:53:1,2015-02-01T00:00:00Z,26.6493,-81.8810,8.9,1111122 
SCCF RECON,ioos:station:SCCF:53:1,2015-02-01T00:15:00Z,26.6493,-81.8810,8.8,1111122 
SCCF RECON,ioos:station:SCCF:53:1,2015-02-01T00:30:00Z,26.6493,-81.8810,9.1,1111122 
SCCF RECON,ioos:station:SCCF:53:1,2015-02-01T00:45:00Z,26.6493,-81.8810,9.5,1111122 
SCCF RECON,ioos:station:SCCF:53:1,2015-02-01T01:00:00Z,26.6493,-81.8810,9.5,1111122 
SCCF RECON,ioos:station:SCCF:53:1,2015-02-01T01:15:00Z,26.6493,-81.8810,9.5,1111122 
SCCF RECON,ioos:station:SCCF:53:1,2015-02-01T01:30:00Z,26.6493,-81.8810,9.9,1111122 
SCCF RECON,ioos:station:SCCF:53:1,2015-02-01T01:45:00Z,26.6493,-81.8810,9.4,1111122 
SCCF RECON,ioos:station:SCCF:53:1,2015-02-01T02:00:00Z,26.6493,-81.8810,9.6,1111122 
SCCF RECON,ioos:station:SCCF:53:1,2015-02-01T02:15:00Z,26.6493,-81.8810,9.9,1111122 
SCCF RECON,ioos:station:SCCF:53:1,2015-02-01T02:30:00Z,26.6493,-81.8810,10.0,1111122 
SCCF RECON,ioos:station:SCCF:53:1,2015-02-01T02:45:00Z,26.6493,-81.8810,10.3,1111122 
SCCF RECON,ioos:station:SCCF:53:1,2015-02-01T03:00:00Z,26.6493,-81.8810,10.2,1111122 
SCCF RECON,ioos:station:SCCF:53:1,2015-02-01T03:15:00Z,26.6493,-81.8810,10.3,1111122 
SCCF RECON,ioos:station:SCCF:53:1,2015-02-01T03:30:00Z,26.6493,-81.8810,10.0,1111122 
SCCF RECON,ioos:station:SCCF:53:1,2015-02-01T03:45:00Z,26.6493,-81.8810,10.1,1111122 
SCCF RECON,ioos:station:SCCF:53:1,2015-02-01T04:00:00Z,26.6493,-81.8810,10.0,1111122 
SCCF RECON,ioos:station:SCCF:53:1,2015-02-01T04:15:00Z,26.6493,-81.8810,9.9,1111122 
SCCF RECON,ioos:station:SCCF:53:1,2015-02-01T04:30:00Z,26.6493,-81.8810,10.0,1111122 
SCCF RECON,ioos:station:SCCF:53:1,2015-02-01T04:45:00Z,26.6493,-81.8810,9.8,1111122 
SCCF RECON,ioos:station:SCCF:53:1,2015-02-01T05:00:00Z,26.6493,-81.8810,9.9,1111122 
SCCF RECON,ioos:station:SCCF:53:1,2015-02-01T05:15:00Z,26.6493,-81.8810,9.8,1111122 
SCCF RECON,ioos:station:SCCF:53:1,2015-02-01T05:30:00Z,26.6493,-81.8810,9.6,1111122 
SCCF RECON,ioos:station:SCCF:53:1,2015-02-01T05:45:00Z,26.6493,-81.8810,9.9,1111122 
SCCF RECON,ioos:station:SCCF:53:1,2015-02-01T06:00:00Z,26.6493,-81.8810,9.7,1111122 
SCCF RECON,ioos:station:SCCF:53:1,2015-02-01T06:15:00Z,26.6493,-81.8810,9.9,1111122 
SCCF RECON,ioos:station:SCCF:53:1,2015-02-01T06:30:00Z,26.6493,-81.8810,9.9,1111122 
SCCF RECON,ioos:station:SCCF:53:1,2015-02-01T06:45:00Z,26.6493,-81.8810,10.2,1111122 
SCCF RECON,ioos:station:SCCF:53:1,2015-02-01T07:00:00Z,26.6493,-81.8810,10.7,1111122 
SCCF RECON,ioos:station:SCCF:53:1,2015-02-01T07:15:00Z,26.6493,-81.8810,10.5,1111122 
SCCF RECON,ioos:station:SCCF:53:1,2015-02-01T07:30:00Z,26.6493,-81.8810,10.9,1111122 
SCCF RECON,ioos:station:SCCF:53:1,2015-02-01T07:45:00Z,26.6493,-81.8810,11.3,1111122 
SCCF RECON,ioos:station:SCCF:53:1,2015-02-01T08:00:00Z,26.6493,-81.8810,11.3,1111122 
SCCF RECON,ioos:station:SCCF:53:1,2015-02-01T08:15:00Z,26.6493,-81.8810,10.8,1111122 
SCCF RECON,ioos:station:SCCF:53:1,2015-02-01T08:30:00Z,26.6493,-81.8810,10.3,1111122 
SCCF RECON,ioos:station:SCCF:53:1,2015-02-01T08:45:00Z,26.6493,-81.8810,10.2,1111122 
SCCF RECON,ioos:station:SCCF:53:1,2015-02-01T09:00:00Z,26.6493,-81.8810,10.4,1111122 
SCCF RECON,ioos:station:SCCF:53:1,2015-02-01T09:15:00Z,26.6493,-81.8810,10.3,1111122 
SCCF RECON,ioos:station:SCCF:53:1,2015-02-01T09:30:00Z,26.6493,-81.8810,10.3,1111122 
SCCF RECON,ioos:station:SCCF:53:1,2015-02-01T09:45:00Z,26.6493,-81.8810,10.2,1111122 
SCCF RECON,ioos:station:SCCF:53:1,2015-02-01T10:00:00Z,26.6493,-81.8810,10.2,1111122 
SCCF RECON,ioos:station:SCCF:53:1,2015-02-01T10:15:00Z,26.6493,-81.8810,10.2,1111122 
SCCF RECON,ioos:station:SCCF:53:1,2015-02-01T10:30:00Z,26.6493,-81.8810,10.3,1111122 
SCCF RECON,ioos:station:SCCF:53:1,2015-02-01T10:45:00Z,26.6493,-81.8810,10.4,1111122 
SCCF RECON,ioos:station:SCCF:53:1,2015-02-01T11:00:00Z,26.6493,-81.8810,10.4,1111122 
SCCF RECON,ioos:station:SCCF:53:1,2015-02-01T11:15:00Z,26.6493,-81.8810,10.3,1111122 
SCCF RECON,ioos:station:SCCF:53:1,2015-02-01T11:30:00Z,26.6493,-81.8810,10.4,1111122 
SCCF RECON,ioos:station:SCCF:53:1,2015-02-01T11:45:00Z,26.6493,-81.8810,10.5,1111122 
SCCF RECON,ioos:station:SCCF:53:1,2015-02-01T12:00:00Z,26.6493,-81.8810,10.6,1111122 
SCCF RECON,ioos:station:SCCF:53:1,2015-02-01T12:15:00Z,26.6493,-81.8810,10.5,1111122 
SCCF RECON,ioos:station:SCCF:53:1,2015-02-01T12:30:00Z,26.6493,-81.8810,10.7,1111122 
SCCF RECON,ioos:station:SCCF:53:1,2015-02-01T12:45:00Z,26.6493,-81.8810,10.6,1111122 
SCCF RECON,ioos:station:SCCF:53:1,2015-02-01T13:00:00Z,26.6493,-81.8810,10.7,1111122 
SCCF RECON,ioos:station:SCCF:53:1,2015-02-01T13:15:00Z,26.6493,-81.8810,10.4,1111122 
SCCF RECON,ioos:station:SCCF:53:1,2015-02-01T13:30:00Z,26.6493,-81.8810,10.4,1111122 
SCCF RECON,ioos:station:SCCF:53:1,2015-02-01T13:45:00Z,26.6493,-81.8810,10.4,1111122 
SCCF RECON,ioos:station:SCCF:53:1,2015-02-01T14:00:00Z,26.6493,-81.8810,10.4,1111122 
SCCF RECON,ioos:station:SCCF:53:1,2015-02-01T14:15:00Z,26.6493,-81.8810,10.9,1111122 
SCCF RECON,ioos:station:SCCF:53:1,2015-02-01T14:30:00Z,26.6493,-81.8810,11.0,1111122 
SCCF RECON,ioos:station:SCCF:53:1,2015-02-01T14:45:00Z,26.6493,-81.8810,11.1,1111122 
SCCF RECON,ioos:station:SCCF:53:1,2015-02-01T15:00:00Z,26.6493,-81.8810,10.8,1111122 
SCCF RECON,ioos:station:SCCF:53:1,2015-02-01T15:15:00Z,26.6493,-81.8810,10.7,1111122 
SCCF RECON,ioos:station:SCCF:53:1,2015-02-01T15:30:00Z,26.6493,-81.8810,10.5,1111122 
SCCF RECON,ioos:station:SCCF:53:1,2015-02-01T15:45:00Z,26.6493,-81.8810,10.1,1111122 
SCCF RECON,ioos:station:SCCF:53:1,2015-02-01T16:00:00Z,26.6493,-81.8810,9.5,1111122 
SCCF RECON,ioos:station:SCCF:53:1,2015-02-01T16:15:00Z,26.6493,-81.8810,9.9,1111122 
SCCF RECON,ioos:station:SCCF:53:1,2015-02-01T16:30:00Z,26.6493,-81.8810,9.9,1111122 
SCCF RECON,ioos:station:SCCF:53:1,2015-02-01T16:45:00Z,26.6493,-81.8810,10.2,1111122 
SCCF RECON,ioos:station:SCCF:53:1,2015-02-01T17:00:00Z,26.6493,-81.8810,10.5,1111122 
SCCF RECON,ioos:station:SCCF:53:1,2015-02-01T17:15:00Z,26.6493,-81.8810,10.1,1111122 
SCCF RECON,ioos:station:SCCF:53:1,2015-02-01T17:30:00Z,26.6493,-81.8810,9.9,1111122 
SCCF RECON,ioos:station:SCCF:53:1,2015-02-01T17:45:00Z,26.6493,-81.8810,9.5,1111122 
SCCF RECON,ioos:station:SCCF:53:1,2015-02-01T18:00:00Z,26.6493,-81.8810,10.4,1111122 
SCCF RECON,ioos:station:SCCF:53:1,2015-02-01T18:15:00Z,26.6493,-81.8810,9.6,1111122 
SCCF RECON,ioos:station:SCCF:53:1,2015-02-01T18:30:00Z,26.6493,-81.8810,9.9,1111122 
SCCF RECON,ioos:station:SCCF:53:1,2015-02-01T18:45:00Z,26.6493,-81.8810,9.3,1111122 
SCCF RECON,ioos:station:SCCF:53:1,2015-02-01T19:00:00Z,26.6493,-81.8810,9.4,1111122 
SCCF RECON,ioos:station:SCCF:53:1,2015-02-01T19:15:00Z,26.6493,-81.8810,10.0,1111122 
SCCF RECON,ioos:station:SCCF:53:1,2015-02-01T19:30:00Z,26.6493,-81.8810,10.0,1111122 
SCCF RECON,ioos:station:SCCF:53:1,2015-02-01T19:45:00Z,26.6493,-81.8810,10.1,1111122 
SCCF RECON,ioos:station:SCCF:53:1,2015-02-01T20:00:00Z,26.6493,-81.8810,10.2,1111122 
SCCF RECON,ioos:station:SCCF:53:1,2015-02-01T20:15:00Z,26.6493,-81.8810,10.4,1111122 
SCCF RECON,ioos:station:SCCF:53:1,2015-02-01T20:30:00Z,26.6493,-81.8810,10.2,1111122 
SCCF RECON,ioos:station:SCCF:53:1,2015-02-01T20:45:00Z,26.6493,-81.8810,9.5,1111122 
SCCF RECON,ioos:station:SCCF:53:1,2015-02-01T21:00:00Z,26.6493,-81.8810,9.4,1111122 
SCCF RECON,ioos:station:SCCF:53:1,2015-02-01T21:15:00Z,26.6493,-81.8810,12.3,1111122 
SCCF RECON,ioos:station:SCCF:53:1,2015-02-01T21:30:00Z,26.6493,-81.8810,13.6,1111122 
SCCF RECON,ioos:station:SCCF:53:1,2015-02-01T21:45:00Z,26.6493,-81.8810,14.1,1111122 
SCCF RECON,ioos:station:SCCF:53:1,2015-02-01T22:00:00Z,26.6493,-81.8810,14.5,1111122 
SCCF RECON,ioos:station:SCCF:53:1,2015-02-01T22:15:00Z,26.6493,-81.8810,14.4,1111122 
SCCF RECON,ioos:station:SCCF:53:1,2015-02-01T22:30:00Z,26.6493,-81.8810,12.5,1111122 
SCCF RECON,ioos:station:SCCF:53:1,2015-02-01T22:45:00Z,26.6493,-81.8810,12.0,1111122 
SCCF RECON,ioos:station:SCCF:53:1,2015-02-01T23:00:00Z,26.6493,-81.8810,12.1,1111122 
SCCF RECON,ioos:station:SCCF:53:1,2015-02-01T23:15:00Z,26.6493,-81.8810,12.8,1111122 
SCCF RECON,ioos:station:SCCF:53:1,2015-02-01T23:30:00Z,26.6493,-81.8810,12.8,1111122 
SCCF RECON,ioos:station:SCCF:53:1,2015-02-01T23:45:00Z,26.6493,-81.8810,12.8,1111122 
SCCF RECON,ioos:station:SCCF:53:1,2015-02-02T00:00:00Z,26.6493,-81.8810,12.6,1111122 
SCCF RECON,ioos:station:SCCF:53:1,2015-02-02T00:15:00Z,26.6493,-81.8810,12.6,1111122 
SCCF RECON,ioos:station:SCCF:53:1,2015-02-02T00:30:00Z,26.6493,-81.8810,12.3,1111122 
SCCF RECON,ioos:station:SCCF:53:1,2015-02-02T00:45:00Z,26.6493,-81.8810,12.6,1111122 
SCCF RECON,ioos:station:SCCF:53:1,2015-02-02T01:00:00Z,26.6493,-81.8810,12.5,1111122 
SCCF RECON,ioos:station:SCCF:53:1,2015-02-02T01:15:00Z,26.6493,-81.8810,12.7,1111122 
SCCF RECON,ioos:station:SCCF:53:1,2015-02-02T01:30:00Z,26.6493,-81.8810,12.9,1111122 
SCCF RECON,ioos:station:SCCF:53:1,2015-02-02T01:45:00Z,26.6493,-81.8810,13.0,1111122 
SCCF RECON,ioos:station:SCCF:53:1,2015-02-02T02:00:00Z,26.6493,-81.8810,13.0,1111122 
SCCF RECON,ioos:station:SCCF:53:1,2015-02-02T02:15:00Z,26.6493,-81.8810,13.3,1111122 
SCCF RECON,ioos:station:SCCF:53:1,2015-02-02T02:30:00Z,26.6493,-81.8810,13.4,1111122 
SCCF RECON,ioos:station:SCCF:53:1,2015-02-02T02:45:00Z,26.6493,-81.8810,13.5,1111122 
SCCF RECON,ioos:station:SCCF:53:1,2015-02-02T03:00:00Z,26.6493,-81.8810,13.6,1111122 
SCCF RECON,ioos:station:SCCF:53:1,2015-02-02T03:15:00Z,26.6493,-81.8810,13.7,1111122 
SCCF RECON,ioos:station:SCCF:53:1,2015-02-02T03:30:00Z,26.6493,-81.8810,13.9,1111122 
SCCF RECON,ioos:station:SCCF:53:1,2015-02-02T03:45:00Z,26.6493,-81.8810,13.9,1111122 
SCCF RECON,ioos:station:SCCF:53:1,2015-02-02T04:00:00Z,26.6493,-81.8810,13.9,1111122 
SCCF RECON,ioos:station:SCCF:53:1,2015-02-02T04:15:00Z,26.6493,-81.8810,14.0,1111122 
SCCF RECON,ioos:station:SCCF:53:1,2015-02-02T04:30:00Z,26.6493,-81.8810,14.1,1111122 
SCCF RECON,ioos:station:SCCF:53:1,2015-02-02T04:45:00Z,26.6493,-81.8810,14.1,1111122 
SCCF RECON,ioos:station:SCCF:53:1,2015-02-02T05:00:00Z,26.6493,-81.8810,14.3,1111122 
SCCF RECON,ioos:station:SCCF:53:1,2015-02-02T05:15:00Z,26.6493,-81.8810,14.0,1111122 
SCCF RECON,ioos:station:SCCF:53:1,2015-02-02T05:30:00Z,26.6493,-81.8810,14.0,1111122 
SCCF RECON,ioos:station:SCCF:53:1,2015-02-02T05:45:00Z,26.6493,-81.8810,14.1,1111122 
SCCF RECON,ioos:station:SCCF:53:1,2015-02-02T06:00:00Z,26.6493,-81.8810,14.0,1111122 
SCCF RECON,ioos:station:SCCF:53:1,2015-02-02T06:15:00Z,26.6493,-81.8810,13.7,1111122 
SCCF RECON,ioos:station:SCCF:53:1,2015-02-02T06:30:00Z,26.6493,-81.8810,14.0,1111122 
SCCF RECON,ioos:station:SCCF:53:1,2015-02-02T06:45:00Z,26.6493,-81.8810,13.9,1111122 
SCCF RECON,ioos:station:SCCF:53:1,2015-02-02T07:00:00Z,26.6493,-81.8810,14.0,1111122 
SCCF RECON,ioos:station:SCCF:53:1,2015-02-02T07:15:00Z,26.6493,-81.8810,14.0,1111122 
SCCF RECON,ioos:station:SCCF:53:1,2015-02-02T07:30:00Z,26.6493,-81.8810,14.2,1111122 
SCCF RECON,ioos:station:SCCF:53:1,2015-02-02T07:45:00Z,26.6493,-81.8810,14.5,1111122 
SCCF RECON,ioos:station:SCCF:53:1,2015-02-02T08:00:00Z,26.6493,-81.8810,14.7,1111122 
SCCF RECON,ioos:station:SCCF:53:1,2015-02-02T08:15:00Z,26.6493,-81.8810,14.8,1111122 
SCCF RECON,ioos:station:SCCF:53:1,2015-02-02T08:30:00Z,26.6493,-81.8810,15.1,1111122 
SCCF RECON,ioos:station:SCCF:53:1,2015-02-02T08:45:00Z,26.6493,-81.8810,14.9,1111122 
SCCF RECON,ioos:station:SCCF:53:1,2015-02-02T09:00:00Z,26.6493,-81.8810,15.3,1111122 
SCCF RECON,ioos:station:SCCF:53:1,2015-02-02T09:15:00Z,26.6493,-81.8810,15.1,1111122 
SCCF RECON,ioos:station:SCCF:53:1,2015-02-02T09:30:00Z,26.6493,-81.8810,15.3,1111122 
SCCF RECON,ioos:station:SCCF:53:1,2015-02-02T09:45:00Z,26.6493,-81.8810,15.4,1111122 
SCCF RECON,ioos:station:SCCF:53:1,2015-02-02T10:00:00Z,26.6493,-81.8810,15.5,1111122 
SCCF RECON,ioos:station:SCCF:53:1,2015-02-02T10:15:00Z,26.6493,-81.8810,15.6,1111122 
SCCF RECON,ioos:station:SCCF:53:1,2015-02-02T10:30:00Z,26.6493,-81.8810,15.5,1111122 
SCCF RECON,ioos:station:SCCF:53:1,2015-02-02T10:45:00Z,26.6493,-81.8810,15.6,1111122 
SCCF RECON,ioos:station:SCCF:53:1,2015-02-02T11:00:00Z,26.6493,-81.8810,15.8,1111122 
SCCF RECON,ioos:station:SCCF:53:1,2015-02-02T11:15:00Z,26.6493,-81.8810,15.9,1111122 
SCCF RECON,ioos:station:SCCF:53:1,2015-02-02T11:30:00Z,26.6493,-81.8810,15.8,1111122 
SCCF RECON,ioos:station:SCCF:53:1,2015-02-02T11:45:00Z,26.6493,-81.8810,15.6,1111122 
SCCF RECON,ioos:station:SCCF:53:1,2015-02-02T12:00:00Z,26.6493,-81.8810,15.8,1111122 
SCCF RECON,ioos:station:SCCF:53:1,2015-02-02T12:15:00Z,26.6493,-81.8810,16.0,1111122 
SCCF RECON,ioos:station:SCCF:53:1,2015-02-02T12:30:00Z,26.6493,-81.8810,16.1,1111122 
SCCF RECON,ioos:station:SCCF:53:1,2015-02-02T12:45:00Z,26.6493,-81.8810,16.3,1111122 
SCCF RECON,ioos:station:SCCF:53:1,2015-02-02T13:00:00Z,26.6493,-81.8810,16.7,1111122 
SCCF RECON,ioos:station:SCCF:53:1,2015-02-02T13:15:00Z,26.6493,-81.8810,16.9,1111122 
SCCF RECON,ioos:station:SCCF:53:1,2015-02-02T13:30:00Z,26.6493,-81.8810,17.1,1111122 
SCCF RECON,ioos:station:SCCF:53:1,2015-02-02T13:45:00Z,26.6493,-81.8810,17.6,1111122 
SCCF RECON,ioos:station:SCCF:53:1,2015-02-02T14:00:00Z,26.6493,-81.8810,18.0,1111122 
SCCF RECON,ioos:station:SCCF:53:1,2015-02-02T14:15:00Z,26.6493,-81.8810,18.0,1111122 
SCCF RECON,ioos:station:SCCF:53:1,2015-02-02T14:30:00Z,26.6493,-81.8810,18.3,1111122 
SCCF RECON,ioos:station:SCCF:53:1,2015-02-02T14:45:00Z,26.6493,-81.8810,18.4,1111122 
SCCF RECON,ioos:station:SCCF:53:1,2015-02-02T15:00:00Z,26.6493,-81.8810,18.4,1111122 
SCCF RECON,ioos:station:SCCF:53:1,2015-02-02T15:15:00Z,26.6493,-81.8810,18.6,1111122 
SCCF RECON,ioos:station:SCCF:53:1,2015-02-02T15:30:00Z,26.6493,-81.8810,18.5,1111122 
SCCF RECON,ioos:station:SCCF:53:1,2015-02-02T15:45:00Z,26.6493,-81.8810,18.8,1111122 
SCCF RECON,ioos:station:SCCF:53:1,2015-02-02T16:00:00Z,26.6493,-81.8810,18.8,1111122 
SCCF RECON,ioos:station:SCCF:53:1,2015-02-02T16:15:00Z,26.6493,-81.8810,18.8,1111122 
SCCF RECON,ioos:station:SCCF:53:1,2015-02-02T16:30:00Z,26.6493,-81.8810,18.8,1111122 
SCCF RECON,ioos:station:SCCF:53:1,2015-02-02T16:45:00Z,26.6493,-81.8810,18.9,1111122 
SCCF RECON,ioos:station:SCCF:53:1,2015-02-02T17:00:00Z,26.6493,-81.8810,18.9,1111122 
SCCF RECON,ioos:station:SCCF:53:1,2015-02-02T17:15:00Z,26.6493,-81.8810,18.8,1111122 
SCCF RECON,ioos:station:SCCF:53:1,2015-02-02T17:30:00Z,26.6493,-81.8810,19.0,1111122 
SCCF RECON,ioos:station:SCCF:53:1,2015-02-02T17:45:00Z,26.6493,-81.8810,17.8,1111122 
SCCF RECON,ioos:station:SCCF:53:1,2015-02-02T18:00:00Z,26.6493,-81.8810,17.8,1111122 
SCCF RECON,ioos:station:SCCF:53:1,2015-02-02T18:15:00Z,26.6493,-81.8810,18.2,1111122 
SCCF RECON,ioos:station:SCCF:53:1,2015-02-02T18:30:00Z,26.6493,-81.8810,17.5,1111122 
SCCF RECON,ioos:station:SCCF:53:1,2015-02-02T18:45:00Z,26.6493,-81.8810,17.6,1111122 
SCCF RECON,ioos:station:SCCF:53:1,2015-02-02T19:00:00Z,26.6493,-81.8810,17.8,1111122 
SCCF RECON,ioos:station:SCCF:53:1,2015-02-02T19:15:00Z,26.6493,-81.8810,17.9,1111122 
SCCF RECON,ioos:station:SCCF:53:1,2015-02-02T19:30:00Z,26.6493,-81.8810,17.8,1111122 
SCCF RECON,ioos:station:SCCF:53:1,2015-02-02T19:45:00Z,26.6493,-81.8810,17.3,1111122 
SCCF RECON,ioos:station:SCCF:53:1,2015-02-02T20:00:00Z,26.6493,-81.8810,17.5,1111122 
SCCF RECON,ioos:station:SCCF:53:1,2015-02-02T20:15:00Z,26.6493,-81.8810,17.6,1111122 
SCCF RECON,ioos:station:SCCF:53:1,2015-02-02T20:30:00Z,26.6493,-81.8810,17.1,1111122 
SCCF RECON,ioos:station:SCCF:53:1,2015-02-02T20:45:00Z,26.6493,-81.8810,15.8,1111122 
SCCF RECON,ioos:station:SCCF:53:1,2015-02-02T21:00:00Z,26.6493,-81.8810,16.2,1111122 
SCCF RECON,ioos:station:SCCF:53:1,2015-02-02T21:15:00Z,26.6493,-81.8810,16.2,1111122 
SCCF RECON,ioos:station:SCCF:53:1,2015-02-02T21:30:00Z,26.6493,-81.8810,17.1,1111122 
SCCF RECON,ioos:station:SCCF:53:1,2015-02-02T21:45:00Z,26.6493,-81.8810,17.8,1111122 
SCCF RECON,ioos:station:SCCF:53:1,2015-02-02T22:00:00Z,26.6493,-81.8810,17.9,1111122 
SCCF RECON,ioos:station:SCCF:53:1,2015-02-02T22:15:00Z,26.6493,-81.8810,17.8,1111122 
SCCF RECON,ioos:station:SCCF:53:1,2015-02-02T22:30:00Z,26.6493,-81.8810,17.7,1111122 
SCCF RECON,ioos:station:SCCF:53:1,2015-02-02T22:45:00Z,26.6493,-81.8810,17.3,1111122 
SCCF RECON,ioos:station:SCCF:53:1,2015-02-02T23:00:00Z,26.6493,-81.8810,16.5,1111122 
SCCF RECON,ioos:station:SCCF:53:1,2015-02-02T23:15:00Z,26.6493,-81.8810,15.7,1111122 
SCCF RECON,ioos:station:SCCF:53:1,2015-02-02T23:30:00Z,26.6493,-81.8810,12.6,1111122 
SCCF RECON,ioos:station:SCCF:53:1,2015-02-02T23:45:00Z,26.6493,-81.8810,13.7,1111122 
SCCF RECON,ioos:station:SCCF:53:1,2015-02-03T00:00:00Z,26.6493,-81.8810,13.2,1111122 
SCCF RECON,ioos:station:SCCF:53:1,2015-02-03T00:15:00Z,26.6493,-81.8810,12.7,1111122 
SCCF RECON,ioos:station:SCCF:53:1,2015-02-03T00:30:00Z,26.6493,-81.8810,9.4,1111122 
SCCF RECON,ioos:station:SCCF:53:1,2015-02-03T00:45:00Z,26.6493,-81.8810,8.2,1111122 
SCCF RECON,ioos:station:SCCF:53:1,2015-02-03T01:00:00Z,26.6493,-81.8810,8.0,1111122 
SCCF RECON,ioos:station:SCCF:53:1,2015-02-03T01:15:00Z,26.6493,-81.8810,8.7,1111122 
SCCF RECON,ioos:station:SCCF:53:1,2015-02-03T01:30:00Z,26.6493,-81.8810,8.4,1111122 
SCCF RECON,ioos:station:SCCF:53:1,2015-02-03T01:45:00Z,26.6493,-81.8810,9.0,1111122 
SCCF RECON,ioos:station:SCCF:53:1,2015-02-03T02:00:00Z,26.6493,-81.8810,8.3,1111122 
SCCF RECON,ioos:station:SCCF:53:1,2015-02-03T02:15:00Z,26.6493,-81.8810,9.1,1111122 
SCCF RECON,ioos:station:SCCF:53:1,2015-02-03T02:30:00Z,26.6493,-81.8810,9.6,1111122 
SCCF RECON,ioos:station:SCCF:53:1,2015-02-03T02:45:00Z,26.6493,-81.8810,10.1,1111122 
SCCF RECON,ioos:station:SCCF:53:1,2015-02-03T03:00:00Z,26.6493,-81.8810,10.5,1111122 
SCCF RECON,ioos:station:SCCF:53:1,2015-02-03T03:15:00Z,26.6493,-81.8810,10.6,1111122 
SCCF RECON,ioos:station:SCCF:53:1,2015-02-03T03:30:00Z,26.6493,-81.8810,10.5,1111122 
SCCF RECON,ioos:station:SCCF:53:1,2015-02-03T03:45:00Z,26.6493,-81.8810,9.9,1111122 
SCCF RECON,ioos:station:SCCF:53:1,2015-02-03T04:00:00Z,26.6493,-81.8810,9.9,1111122 
SCCF RECON,ioos:station:SCCF:53:1,2015-02-03T04:15:00Z,26.6493,-81.8810,9.5,1111122 
SCCF RECON,ioos:station:SCCF:53:1,2015-02-03T04:30:00Z,26.6493,-81.8810,9.4,1111122 
SCCF RECON,ioos:station:SCCF:53:1,2015-02-03T04:45:00Z,26.6493,-81.8810,9.8,1111122 
SCCF RECON,ioos:station:SCCF:53:1,2015-02-03T05:00:00Z,26.6493,-81.8810,9.6,1111122 
SCCF RECON,ioos:station:SCCF:53:1,2015-02-03T05:15:00Z,26.6493,-81.8810,9.2,1111122 
SCCF RECON,ioos:station:SCCF:53:1,2015-02-03T05:30:00Z,26.6493,-81.8810,9.1,1111122 
SCCF RECON,ioos:station:SCCF:53:1,2015-02-03T05:45:00Z,26.6493,-81.8810,9.1,1111122 
SCCF RECON,ioos:station:SCCF:53:1,2015-02-03T06:00:00Z,26.6493,-81.8810,8.7,1111122 
SCCF RECON,ioos:station:SCCF:53:1,2015-02-03T06:15:00Z,26.6493,-81.8810,8.3,1111122 
SCCF RECON,ioos:station:SCCF:53:1,2015-02-03T06:30:00Z,26.6493,-81.8810,7.8,1111122 
SCCF RECON,ioos:station:SCCF:53:1,2015-02-03T06:45:00Z,26.6493,-81.8810,7.9,1111122 
SCCF RECON,ioos:station:SCCF:53:1,2015-02-03T07:00:00Z,26.6493,-81.8810,7.5,1111122 
SCCF RECON,ioos:station:SCCF:53:1,2015-02-03T07:15:00Z,26.6493,-81.8810,7.6,1111122 
SCCF RECON,ioos:station:SCCF:53:1,2015-02-03T07:30:00Z,26.6493,-81.8810,7.1,1111122 
SCCF RECON,ioos:station:SCCF:53:1,2015-02-03T07:45:00Z,26.6493,-81.8810,7.2,1111122 
SCCF RECON,ioos:station:SCCF:53:1,2015-02-03T08:00:00Z,26.6493,-81.8810,6.9,1111122 
SCCF RECON,ioos:station:SCCF:53:1,2015-02-03T08:15:00Z,26.6493,-81.8810,6.9,1111122 
SCCF RECON,ioos:station:SCCF:53:1,2015-02-03T08:30:00Z,26.6493,-81.8810,6.6,1111122 
SCCF RECON,ioos:station:SCCF:53:1,2015-02-03T08:45:00Z,26.6493,-81.8810,6.4,1111122 
SCCF RECON,ioos:station:SCCF:53:1,2015-02-03T09:00:00Z,26.6493,-81.8810,6.9,1111122 
SCCF RECON,ioos:station:SCCF:53:1,2015-02-03T09:15:00Z,26.6493,-81.8810,6.8,1111122 
SCCF RECON,ioos:station:SCCF:53:1,2015-02-03T09:30:00Z,26.6493,-81.8810,6.0,1111122 
SCCF RECON,ioos:station:SCCF:53:1,2015-02-03T09:45:00Z,26.6493,-81.8810,5.8,1111122 
SCCF RECON,ioos:station:SCCF:53:1,2015-02-03T10:00:00Z,26.6493,-81.8810,5.9,1111122 
SCCF RECON,ioos:station:SCCF:53:1,2015-02-03T10:15:00Z,26.6493,-81.8810,5.8,1111122 
SCCF RECON,ioos:station:SCCF:53:1,2015-02-03T10:30:00Z,26.6493,-81.8810,5.0,1111122 
SCCF RECON,ioos:station:SCCF:53:1,2015-02-03T10:45:00Z,26.6493,-81.8810,5.0,1111122 
SCCF RECON,ioos:station:SCCF:53:1,2015-02-03T11:00:00Z,26.6493,-81.8810,4.8,1111122 
SCCF RECON,ioos:station:SCCF:53:1,2015-02-03T11:15:00Z,26.6493,-81.8810,4.8,1111122 
SCCF RECON,ioos:station:SCCF:53:1,2015-02-03T11:30:00Z,26.6493,-81.8810,4.7,1111122 
SCCF RECON,ioos:station:SCCF:53:1,2015-02-03T11:45:00Z,26.6493,-81.8810,4.3,1111122 
SCCF RECON,ioos:station:SCCF:53:1,2015-02-03T12:00:00Z,26.6493,-81.8810,4.8,1111122 
SCCF RECON,ioos:station:SCCF:53:1,2015-02-03T12:15:00Z,26.6493,-81.8810,4.2,1111122 
SCCF RECON,ioos:station:SCCF:53:1,2015-02-03T12:30:00Z,26.6493,-81.8810,3.9,1111122 
SCCF RECON,ioos:station:SCCF:53:1,2015-02-03T12:45:00Z,26.6493,-81.8810,4.1,1111122 
SCCF RECON,ioos:station:SCCF:53:1,2015-02-03T13:00:00Z,26.6493,-81.8810,4.1,1111122 
SCCF RECON,ioos:station:SCCF:53:1,2015-02-03T13:15:00Z,26.6493,-81.8810,3.8,1111122 
SCCF RECON,ioos:station:SCCF:53:1,2015-02-03T13:30:00Z,26.6493,-81.8810,4.4,1111122 
SCCF RECON,ioos:station:SCCF:53:1,2015-02-03T13:45:00Z,26.6493,-81.8810,4.7,1111122 
SCCF RECON,ioos:station:SCCF:53:1,2015-02-03T14:00:00Z,26.6493,-81.8810,4.2,1111122 
SCCF RECON,ioos:station:SCCF:53:1,2015-02-03T14:15:00Z,26.6493,-81.8810,4.9,1111122 
SCCF RECON,ioos:station:SCCF:53:1,2015-02-03T14:30:00Z,26.6493,-81.8810,5.2,1111122 
SCCF RECON,ioos:station:SCCF:53:1,2015-02-03T14:45:00Z,26.6493,-81.8810,5.5,1111122 
SCCF RECON,ioos:station:SCCF:53:1,2015-02-03T15:00:00Z,26.6493,-81.8810,6.6,1111122 
SCCF RECON,ioos:station:SCCF:53:1,2015-02-03T15:15:00Z,26.6493,-81.8810,6.3,1111122 
SCCF RECON,ioos:station:SCCF:53:1,2015-02-03T15:30:00Z,26.6493,-81.8810,6.6,1111122 
SCCF RECON,ioos:station:SCCF:53:1,2015-02-03T15:45:00Z,26.6493,-81.8810,6.6,1111122 
SCCF RECON,ioos:station:SCCF:53:1,2015-02-03T16:00:00Z,26.6493,-81.8810,7.2,1111122 
SCCF RECON,ioos:station:SCCF:53:1,2015-02-03T16:15:00Z,26.6493,-81.8810,7.3,1111122 
SCCF RECON,ioos:station:SCCF:53:1,2015-02-03T16:30:00Z,26.6493,-81.8810,7.7,1111122 
SCCF RECON,ioos:station:SCCF:53:1,2015-02-03T16:45:00Z,26.6493,-81.8810,8.3,1111122 
SCCF RECON,ioos:station:SCCF:53:1,2015-02-03T17:00:00Z,26.6493,-81.8810,8.9,1111122 
SCCF RECON,ioos:station:SCCF:53:1,2015-02-03T17:15:00Z,26.6493,-81.8810,8.9,1111122 
SCCF RECON,ioos:station:SCCF:53:1,2015-02-03T17:30:00Z,26.6493,-81.8810,9.2,1111122 
SCCF RECON,ioos:station:SCCF:53:1,2015-02-03T17:45:00Z,26.6493,-81.8810,9.2,1111122 
SCCF RECON,ioos:station:SCCF:53:1,2015-02-03T18:00:00Z,26.6493,-81.8810,9.8,1111122 
SCCF RECON,ioos:station:SCCF:53:1,2015-02-03T18:15:00Z,26.6493,-81.8810,8.6,1111122 
SCCF RECON,ioos:station:SCCF:53:1,2015-02-03T18:30:00Z,26.6493,-81.8810,9.3,1111122 
SCCF RECON,ioos:station:SCCF:53:1,2015-02-03T18:45:00Z,26.6493,-81.8810,10.3,1111122 
SCCF RECON,ioos:station:SCCF:53:1,2015-02-03T19:00:00Z,26.6493,-81.8810,9.2,1111122 
SCCF RECON,ioos:station:SCCF:53:1,2015-02-03T19:15:00Z,26.6493,-81.8810,10.2,1111122 
SCCF RECON,ioos:station:SCCF:53:1,2015-02-03T19:30:00Z,26.6493,-81.8810,9.8,1111122 
SCCF RECON,ioos:station:SCCF:53:1,2015-02-03T19:45:00Z,26.6493,-81.8810,10.7,1111122 
SCCF RECON,ioos:station:SCCF:53:1,2015-02-03T20:00:00Z,26.6493,-81.8810,9.4,1111122 
SCCF RECON,ioos:station:SCCF:53:1,2015-02-03T20:15:00Z,26.6493,-81.8810,9.7,1111122 
SCCF RECON,ioos:station:SCCF:53:1,2015-02-03T20:30:00Z,26.6493,-81.8810,10.2,1111122 
SCCF RECON,ioos:station:SCCF:53:1,2015-02-03T20:45:00Z,26.6493,-81.8810,10.2,1111122 
SCCF RECON,ioos:station:SCCF:53:1,2015-02-03T21:00:00Z,26.6493,-81.8810,9.9,1111122 
SCCF RECON,ioos:station:SCCF:53:1,2015-02-03T21:15:00Z,26.6493,-81.8810,9.1,1111122 
SCCF RECON,ioos:station:SCCF:53:1,2015-02-03T21:30:00Z,26.6493,-81.8810,10.1,1111122 